Edinburg, TX

5:59 PM CDT on May 23, 2017 (GMT -0500)
Edinburg

Weather History for KEBG - January, 2013

Change the Weather History Date:

Friday, January 4, 2013

  Actual Average (KMFE) Record (KMFE)
Temperature  
Mean Temperature 46 °F -  
Max Temperature 49 °F 70 °F 94 °F (1997)
Min Temperature 44 °F 49 °F 25 °F (1916)
Degree Days  
Heating Degree Days 18    
Moisture  
Dew Point 42 °F    
Average Humidity 84    
Maximum Humidity 92    
Minimum Humidity 56    
Precipitation  
Precipitation 0.05 in - - ()
Sea Level Pressure  
Sea Level Pressure 30.38 in    
Wind  
Wind Speed 12 mph (NNW)    
Max Wind Speed 17 mph    
Max Gust Speed 25 mph    
Visibility 4 miles    
Events Rain    
Averages and records for this station are not official NWS values.
T = Trace of Precipitation, MM = Missing Value Source: NWS Daily Summary

Daily Weather History Graph

Daily Weather History Graph

Search for Another Location

Airport or City:

Trip Planner

Search our weather history database for the weather conditions in past years. The results will help you decide how hot, cold, wet, or windy it might be!

Date:

Astronomy

Jan. 04, 2013 Rise Set
Actual Time 7:21 AM CST 5:54 PM CST
Civil Twilight 6:56 AM CST 6:19 PM CST
Nautical Twilight 6:27 AM CST 6:47 PM CST
Astronomical Twilight 5:59 AM CST 7:16 PM CST
Moon No Moon Rise 11:48 AM CST (1/4)
Length of Visible Light 11h 23m
Length of Day
10h 32m
Waning Gibbous, 55% of the Moon is Illuminated
Jan 4
Waning Gibbous
Jan 4
Last Quarter
Jan 11
New
Jan 18
First Quarter
Jan 26
Full

Hourly Weather History & Observations

Time (CST) Temp. Windchill Dew Point Humidity Pressure Visibility Wind Dir Wind Speed Gust Speed Precip Events Conditions
12:15 AM 49.3 °F - 34.7 °F 57% 30.37 in 7.0 mi NNW 9.2 mph - N/A   Overcast
12:35 AM 49.3 °F - 34.7 °F 57% 30.36 in 7.0 mi NNW 8.1 mph - N/A   Overcast
12:55 AM 49.3 °F - 34.3 °F 56% 30.36 in 7.0 mi NNW 10.4 mph - N/A   Overcast
1:15 AM 49.3 °F - 34.7 °F 57% 30.35 in 7.0 mi NNW 11.5 mph - N/A   Overcast
1:35 AM 49.3 °F - 35.1 °F 58% 30.36 in 7.0 mi NNW 10.4 mph - N/A   Overcast
1:55 AM 49.1 °F - 35.2 °F 59% 30.35 in 7.0 mi NNW 12.7 mph - N/A   Overcast
2:15 AM 49.1 °F - 35.4 °F 59% 30.36 in 7.0 mi NNW 12.7 mph 16.1 mph N/A   Overcast
2:55 AM 49.1 °F - 35.2 °F 59% 30.35 in 7.0 mi NNW 11.5 mph - N/A   Overcast
3:15 AM 49.1 °F - 35.4 °F 59% 30.35 in 7.0 mi NNW 11.5 mph - N/A   Overcast
5:55 AM 45.5 °F 38.3 °F 39.6 °F 80% 30.38 in 5.0 mi NNW 17.3 mph 25.3 mph N/A   Haze
6:15 AM 45.1 °F 38.8 °F 40.1 °F 82% 30.39 in 4.0 mi NNW 13.8 mph - N/A   Haze
6:35 AM 44.6 °F 38.8 °F 41.0 °F 87% 30.39 in 2.5 mi NNW 11.5 mph - N/A   Light Drizzle
6:55 AM 44.1 °F 37.4 °F 41.2 °F 90% 30.39 in 2.0 mi NNW 13.8 mph - N/A Rain Rain
7:15 AM 44.1 °F 37.7 °F 41.4 °F 90% 30.40 in 2.0 mi NNW 12.7 mph 18.4 mph N/A Rain Rain
7:35 AM 44.1 °F 38.1 °F 41.7 °F 91% 30.41 in 2.5 mi NNW 11.5 mph - N/A Rain Light Rain
7:55 AM 44.2 °F 38.4 °F 41.9 °F 91% 30.42 in 2.0 mi NNW 11.5 mph - N/A Rain Light Rain
8:15 AM 44.4 °F 39.0 °F 41.9 °F 91% 30.43 in 1.5 mi North 10.4 mph - N/A   Light Drizzle
8:35 AM 44.6 °F 38.4 °F 42.1 °F 91% 30.43 in 1.5 mi NNW 12.7 mph - N/A   Drizzle
8:55 AM 44.6 °F 38.8 °F 42.3 °F 91% 30.44 in 1.8 mi NNW 11.5 mph - N/A Rain Light Rain
9:15 AM 44.8 °F 39.0 °F 42.4 °F 91% 30.44 in 1.5 mi NNW 11.5 mph - N/A Rain Light Rain
9:35 AM 45.0 °F 39.3 °F 42.6 °F 91% 30.45 in 1.5 mi NW 11.5 mph - N/A Rain Rain
9:55 AM 45.1 °F 38.8 °F 42.8 °F 91% 30.45 in 1.5 mi NNW 13.8 mph 18.4 mph 0.01 in Rain Light Rain
10:15 AM 45.5 °F 39.6 °F 43.0 °F 91% 30.44 in 1.8 mi NNW 12.7 mph - N/A Rain Light Rain
10:35 AM 45.5 °F 39.6 °F 43.0 °F 91% 30.44 in 1.5 mi NNW 12.7 mph - N/A Rain Light Rain
10:55 AM 45.5 °F 39.6 °F 43.0 °F 91% 30.44 in 1.5 mi NW 12.7 mph - N/A Rain Rain
11:15 AM 45.5 °F 38.9 °F 43.0 °F 91% 30.43 in 1.2 mi NNW 15.0 mph - N/A Rain Rain
11:35 AM 45.7 °F 39.8 °F 43.3 °F 92% 30.43 in 1.2 mi NNW 12.7 mph 18.4 mph 0.01 in Rain Light Rain
11:55 AM 45.7 °F 39.5 °F 43.5 °F 92% 30.42 in 1.5 mi NNW 13.8 mph - 0.01 in Rain Light Rain
12:15 PM 45.9 °F 39.7 °F 43.7 °F 92% 30.41 in 1.5 mi NNW 13.8 mph - N/A   Drizzle
12:55 PM 46.0 °F 39.6 °F 43.7 °F 92% 30.39 in 1.5 mi NW 15.0 mph - 0.01 in Rain Light Rain
1:15 PM 46.2 °F 40.1 °F 43.9 °F 92% 30.38 in 1.2 mi NNW 13.8 mph 18.4 mph N/A Rain Light Rain
1:35 PM 46.4 °F 40.4 °F 43.9 °F 91% 30.38 in 1.5 mi NNW 13.8 mph - 0.01 in   Drizzle
1:55 PM 46.4 °F 39.8 °F 44.1 °F 92% 30.36 in 1.8 mi NNW 16.1 mph 23.0 mph 0.01 in Rain Light Rain
2:15 PM 46.4 °F 40.4 °F 44.1 °F 92% 30.36 in 2.0 mi NNW 13.8 mph - N/A Rain Light Rain
2:35 PM 46.4 °F 40.7 °F 43.9 °F 91% 30.36 in 1.8 mi NW 12.7 mph - N/A Rain Rain
2:55 PM 46.4 °F 39.8 °F 43.9 °F 91% 30.34 in 2.0 mi NNW 16.1 mph 19.6 mph 0.01 in   Light Drizzle
3:15 PM 46.8 °F - 44.4 °F 92% 30.34 in 2.0 mi NNW 11.5 mph 18.4 mph N/A   Overcast
3:35 PM 46.6 °F - 44.2 °F 92% 30.35 in 2.0 mi NNW 10.4 mph - N/A   Overcast
3:55 PM 46.6 °F - 44.1 °F 91% 30.34 in 2.0 mi NNW 12.7 mph - N/A   Overcast
4:15 PM 46.8 °F - 44.4 °F 92% 30.34 in 2.5 mi NNW 10.4 mph - N/A   Overcast
4:35 PM 46.6 °F - 44.1 °F 91% 30.34 in 3.0 mi NNW 13.8 mph - N/A   Overcast
4:55 PM 46.8 °F - 44.2 °F 91% 30.34 in 4.0 mi NNW 15.0 mph - N/A   Overcast
5:15 PM 46.8 °F - 44.2 °F 91% 30.35 in 5.0 mi NNW 9.2 mph - N/A   Overcast
5:35 PM 46.8 °F - 44.1 °F 90% 30.35 in 4.0 mi NNW 12.7 mph - N/A   Overcast
5:55 PM 46.8 °F - 43.9 °F 90% 30.35 in 5.0 mi NNW 11.5 mph - N/A   Overcast
6:15 PM 46.9 °F - 43.7 °F 88% 30.36 in 7.0 mi NNW 10.4 mph - N/A   Overcast
6:55 PM 46.9 °F - 43.7 °F 88% 30.36 in 5.0 mi NNW 12.7 mph - N/A   Overcast
7:15 PM 46.9 °F - 43.7 °F 88% 30.36 in 7.0 mi NW 11.5 mph - N/A   Overcast
7:35 PM 46.9 °F - 43.7 °F 88% 30.36 in 5.0 mi NNW 9.2 mph - N/A   Overcast
7:55 PM 46.9 °F - 43.3 °F 87% 30.37 in 5.0 mi NNW 10.4 mph - N/A   Overcast
8:15 PM 46.9 °F - 43.3 °F 87% 30.37 in 7.0 mi NW 11.5 mph - N/A   Overcast
8:35 PM 47.3 °F - 43.7 °F 87% 30.37 in 5.0 mi NNW 13.8 mph - N/A   Overcast
9:15 PM 47.3 °F - 43.3 °F 86% 30.37 in 5.0 mi NNW 11.5 mph - N/A   Overcast
9:35 PM 47.3 °F - 43.2 °F 86% 30.38 in 7.0 mi NNW 11.5 mph - N/A   Overcast
9:55 PM 47.3 °F - 43.2 °F 86% 30.38 in 7.0 mi NNW 11.5 mph - N/A   Overcast
10:15 PM 47.3 °F - 43.2 °F 86% 30.37 in 5.0 mi NNW 11.5 mph - N/A   Overcast
10:35 PM 47.3 °F - 42.8 °F 84% 30.37 in 7.0 mi NNW 11.5 mph - N/A   Overcast
10:55 PM 47.5 °F - 42.8 °F 84% 30.36 in 5.0 mi NNW 9.2 mph - N/A   Haze
11:15 PM 47.5 °F - 42.8 °F 84% 30.36 in 5.0 mi NNW 9.2 mph - N/A   Haze
11:35 PM 47.7 °F - 42.8 °F 83% 30.35 in 7.0 mi NNW 10.4 mph 16.1 mph N/A   Overcast
11:55 PM 47.7 °F - 42.6 °F 83% 30.35 in 7.0 mi NW 11.5 mph - N/A   Overcast